STARLINK-33706 (63461 NORAD) Tracking and Keplerian Element Data

This shows tracking and keplerian element data for the satellite.

Feedback or suggestion? Click here.




ElementValue
Catalog63461
NameSTARLINK-33706
Epoch Orbit4079
Epoch Day354.05581387
Epoch Year2025
RAAN349.8651
Inclination43.0032
Eccentricity0.0001395
Argument of Perigee185.4604
Mean Anonmoly174.6233
Mean Motion15.27618185
Decay Rate0.00020519
L11 63461U 25070B 25354.05581387 .00020519 00000+0 75222-3 0 9997
L22 63461 43.0032 349.8651 0001395 185.4604 174.6233 15.27618185 40796



Live tracking and technical data element details for STARLINK-33706 (NORAD 63461). STARLINK-33706 can be tracked NOW for your location showing map with azimuth and elevation plus other details from your city location.







IsCatalogInMostPopularTable: catalog: 63461, numindb: 6
Update: records affected: 1



GetName: 63461 STARLINK-33706

Hit Count: updated at: Mon, 20 Apr 2026 09:27:25 GMT